Air Resources Laboratory banner image
Air Resources Laboratory web site National Oceanic and Atmospheric Administration (NOAA)

ms roundup


Office: JAN

ASUS44 KJAN 202110
RWRMS

MISSISSIPPI HOURLY WEATHER ROUNDUP
NATIONAL WEATHER SERVICE JACKSON MS
300 PM CST TUE NOV 20 2018

NOTE: "FAIR: INDICATES FEW OR NO CLOUDS BELOW 12,000 FEET WITH NO
SIGNIFICANT WEATHER AND/OR OBSTRUCTIONS TO VISIBILITY.

MSZ001>002-007>008-010>013-018>021-025>028-034>036-202200-
NORTHWEST MISSISSIPPI

CITY           SKY/WX    TMP DP  RH WIND       PRES   REMARKS
BATESVILLE     FAIR      52  36  54 VRB7      30.27S
CLARKSDALE     MOSUNNY   50  37  62 NW6       30.29S
CLEVELAND      FAIR      51  38  59 NW12      30.29R
GREENWOOD      FAIR      54  37  52 VRB3      30.26F
GREENVILLE     FAIR      53  37  54 N7        30.27F
OLIVE BRANCH   MOSUNNY   48  36  61 N12       30.27S
OXFORD         FAIR      52  34  50 NW7       30.27S
TUNICA           N/A     45  36  70 N12       30.31S
WINONA         MOCLDY    53  37  53 N7        30.25S
$$

MSZ003>006-009-014>017-022>024-029>033-037>039-202200-
NORTHEAST MISSISSIPPI

CITY           SKY/WX    TMP DP  RH WIND       PRES   REMARKS
ABERDEEN       MOCLDY    54  41  62 NW9       30.26S
COLUMBUS AFB   FAIR      54  36  50 N10       30.23F
CORINTH        MOCLDY    52  34  50 VRB5      30.25S
GOLDN TRIANGLE FAIR      55  39  54 N8        30.24F
STARKVILLE     FAIR      54  37  54 N5        30.25S
TUPELO         FAIR      55  34  45 N12       30.24F
$$

MSZ040-058-202200-
CENTRAL MISSISSIPPI

CITY           SKY/WX    TMP DP  RH WIND       PRES   REMARKS
JACKSON INTL   FAIR      57  38  48 N8        30.24S
JACKSON HAWKNS FAIR      57  39  51 VRB5      30.25S
MADISON        FAIR      54  37  54 NW9       30.24R
MERIDIAN KEY   FAIR      58  38  47 N8        30.22S
MERIDIAN NAS   NOT AVBL
RAYMOND        FAIR      57  39  51 NW6G13    30.24S
VICKSBURG VKS  CLEAR     57  37  47 N12       30.26S
$$

MSZ059>079-202200-
SOUTH MISSISSIPPI

CITY           SKY/WX    TMP DP  RH WIND       PRES   REMARKS
COLUMBIA       FAIR      61  39  44 N9        30.23F
HATTIESBURG    FAIR      60  40  47 N8        30.20F
LAUREL         FAIR      59  38  46 N7        30.21S
MCCOMB         FAIR      60  37  42 N8G21     30.20F
NATCHEZ        FAIR      55  40  56 N9        30.25S
PINE BELT      FAIR      60  39  45 N10       30.20F
$$

MSZ080>082-202200-
COASTAL MISSISSIPPI

CITY           SKY/WX    TMP DP  RH WIND       PRES   REMARKS
BAY ST LOUIS   MOSUNNY   59  50  72 N10       30.21S
BILOXI         FAIR      61  51  69 N12       30.16S
PASCAGOULA     CLOUDY    58  49  72 NW8       30.17R
GULFPORT       FAIR      60  49  66 N10       30.16S
$$

LAZ007>009-015>016-023>026-202200-
NORTHEAST LOUISIANA

CITY           SKY/WX    TMP DP  RH WIND       PRES   REMARKS
BASTROP        FAIR      54  39  57 NW7       30.28F
TALLULAH/VBURG FAIR      56  40  55 N10       30.27F
VIDALIA        FAIR      57  39  51 N10       30.24S
$$